Home > Time Zones > World Clock > Weather > Japan > Kobe > Past weeks

Flag for Japan Weather past 2 weeks in Kobe, Japan

Now
77 °F

Passing clouds.


Feels Like: 78 °F
Forecast: 74 / 82 °F
Wind: 9 mph from Southeast

Location: Kansai International Airport

Current Time: Aug 30, 2015 at 4:19:07 AM

Latest Report: Aug 30, 2015 at 4:00 AM


Visibility: N/A

Pressure: 29.74 "Hg

Humidity: 83%

Dew point: 72 °F

Location of KobeLocation

Historic Weather in Kobe — Graph

°F

Kobe temperature yesterday

Maximum temperature yesterday: 84 °F (at 11:00 AM)
Minimum temperature yesterday: 75 °F (at 10:00 PM)
Average temperature yesterday: 80 °F

Past Weeks' High & Low Weather Summary

 TemperatureHumidityPressure
High88 °F (Aug 15, 12:30 PM)100% (Aug 15, 3:30 AM)29.95 "Hg (Aug 15, 3:30 AM)
Low73 °F (Aug 18, 3:30 AM)46% (Aug 28, 2:00 PM)29.36 "Hg (Aug 25, 3:30 PM)
Average80 °F80%29.73 "Hg
* Reported Aug 15 3:00 AM — Aug 30 3:00 AM, Kobe, Weather by CustomWeather, © 2015

Note: Actual official high and low records may vary slightly from our data, if they occured in-between our weather recording intervals... More about our weather records

Advertising

Kobe weather history for previous 24 hours

 ConditionsComfort  
Time TempWeatherWind HumidityBarometerVisibility
3:00 AM
Sun, Aug 30
75 °FSprinkles. Passing clouds.3 mph89%29.77 "HgN/A
2:30 AM75 °FSprinkles. Passing clouds.6 mph94%29.77 "HgN/A
2:00 AM75 °FSprinkles. Partly cloudy.7 mph94%29.77 "HgN/A
1:30 AM75 °FPartly cloudy.5 mph89%29.77 "HgN/A
1:00 AM75 °FSprinkles. Partly cloudy.6 mph94%29.77 "HgN/A
12:30 AM75 °FSprinkles. Partly cloudy.6 mph94%29.80 "HgN/A
12:00 AM75 °FSprinkles. Partly cloudy.3 mph94%29.80 "Hg5 mi
11:30 PM
Sat, Aug 29
77 °FLots of rain. Partly cloudy.9 mph94%29.83 "Hg2 mi
11:00 PM75 °FSprinkles. Partly cloudy.1 mph94%29.80 "Hg4 mi
10:30 PM75 °FSprinkles. Partly cloudy.2 mph94%29.80 "Hg4 mi
10:00 PM75 °FSprinkles. Partly cloudy.2 mph94%29.83 "Hg5 mi
9:30 PM77 °FSprinkles. Partly cloudy.3 mph89%29.83 "HgN/A
9:00 PM79 °FScattered showers. Partly cloudy.3 mph84%29.83 "HgN/A
8:30 PM79 °FScattered showers. Partly cloudy.5 mph84%29.80 "HgN/A
8:00 PM79 °FSprinkles. Partly cloudy.9 mph89%29.80 "HgN/A
7:00 PM79 °FSprinkles. Partly cloudy.10 mph84%29.80 "HgN/A
6:30 PM79 °FSprinkles. Partly cloudy.10 mph84%29.80 "HgN/A
6:00 PM79 °FSprinkles. Broken clouds.10 mph84%29.80 "HgN/A
5:30 PM81 °FSprinkles. Broken clouds.12 mph79%29.80 "HgN/A
5:00 PM81 °FPartly sunny.14 mph84%29.80 "HgN/A
4:30 PM81 °FSprinkles. Broken clouds.14 mph79%29.80 "HgN/A
4:00 PM81 °FPartly sunny.14 mph84%29.80 "HgN/A
3:00 PM82 °FBroken clouds.13 mph74%29.80 "HgN/A
2:30 PM81 °FBroken clouds.8 mph74%29.80 "HgN/A
2:00 PM82 °FBroken clouds.6 mph74%29.80 "HgN/A
1:30 PM82 °FBroken clouds.6 mph70%29.80 "HgN/A
1:00 PM82 °FBroken clouds.7 mph74%29.80 "HgN/A
12:30 PM84 °FPartly sunny.8 mph70%29.80 "HgN/A
12:00 PM84 °FPartly sunny.6 mph70%29.80 "HgN/A
11:30 AM84 °FPartly sunny.5 mph74%29.83 "HgN/A
11:00 AM84 °FPartly sunny.2 mph70%29.83 "HgN/A
10:30 AM82 °FScattered showers. Partly sunny.2 mph74%29.83 "HgN/A
10:00 AM81 °FScattered showers. Partly sunny.5 mph79%29.83 "HgN/A
9:30 AM82 °FPartly sunny.5 mph79%29.83 "HgN/A
9:00 AM81 °FBroken clouds.7 mph79%29.83 "HgN/A
8:30 AM81 °FBroken clouds.1 mph84%29.83 "HgN/A
8:00 AM81 °FBroken clouds.3 mph79%29.83 "HgN/A
7:30 AM79 °FBroken clouds.1 mph84%29.83 "HgN/A
7:00 AM79 °FBroken clouds.1 mph84%29.83 "HgN/A
6:30 AM77 °FBroken clouds.2 mph89%29.83 "HgN/A
6:00 AM77 °FBroken clouds.2 mph89%29.80 "HgN/A
5:30 AM77 °FSprinkles. Broken clouds.3 mph89%29.80 "HgN/A
5:00 AM79 °FSprinkles. Passing clouds.No wind79%29.80 "HgN/A
4:30 AM77 °FPartly cloudy.1 mph83%29.80 "HgN/A
4:00 AM79 °FPassing clouds.2 mph84%29.80 "HgN/A
Weather by CustomWeather, © 2015

See weather overviewHow to use our weather pages